When you browse on this site, cookies collect data to enhance your experience and personalize the content and advertising you see.
Visit our Privacy Policy to learn more. By continuing to use the site, you agree to this use of cookies and data.
EN

Hourly Weather Cabimas

Today, 8 August, Saturday

Time Temperature Precipitation Wind Pressure Humidity
00:00 +28°C° 0 mm 4 mps 758 mmHg 79%
01:00 +28°C° 0 mm 3 mps 758 mmHg 80%
02:00 +28°C° 0 mm 3 mps 758 mmHg 81%
03:00 +27°C° 0 mm 3 mps 758 mmHg 82%
04:00 +27°C° 0 mm 3 mps 758 mmHg 83%
05:00 +28°C° 0 mm 3 mps 758 mmHg 81%
06:00 +28°C° 0 mm 4 mps 758 mmHg 80%
07:00 +29°C° 0 mm 4 mps 758 mmHg 78%
08:00 +30°C° 0 mm 4 mps 758 mmHg 73%
09:00 +33°C° 0 mm 3 mps 758 mmHg 67%
10:00 +35°C° 0 mm 3 mps 758 mmHg 61%
11:00 +36°C° 0 mm 3 mps 758 mmHg 58%
12:00 +37°C° 0 mm 2 mps 757 mmHg 55%
13:00 +38°C° 0 mm 2 mps 756 mmHg 52%
14:00 +37°C° 0.2 mm 3 mps 756 mmHg 55%
15:00 +36°C° 0.2 mm 3 mps 755 mmHg 59%
16:00 +35°C° 0.2 mm 4 mps 755 mmHg 62%
17:00 +34°C° 0 mm 4 mps 755 mmHg 65%
18:00 +33°C° 0 mm 4 mps 756 mmHg 68%
19:00 +32°C° 0 mm 4 mps 756 mmHg 71%
20:00 +32°C° 0 mm 4 mps 757 mmHg 71%
21:00 +30°C° 0 mm 4 mps 758 mmHg 70%
22:00 +30°C° 0 mm 3 mps 758 mmHg 70%
23:00 +29°C° 0.8 mm 3 mps 758 mmHg 71%

Tomorrow, 9 August, Sunday

Time Temperature Precipitation Wind Pressure Humidity
00:00 +29°C° 0.8 mm 3 mps 758 mmHg 72%
01:00 +28°C° 0.8 mm 3 mps 758 mmHg 73%
02:00 +28°C° 0.8 mm 3 mps 757 mmHg 73%
03:00 +28°C° 0.8 mm 2 mps 757 mmHg 74%
04:00 +27°C° 0.8 mm 2 mps 757 mmHg 75%
05:00 +28°C° 0.1 mm 2 mps 757 mmHg 74%
06:00 +28°C° 0.1 mm 2 mps 758 mmHg 74%
07:00 +29°C° 0.1 mm 2 mps 758 mmHg 73%
08:00 +31°C° 0.3 mm 2 mps 758 mmHg 68%
09:00 +33°C° 0.3 mm 3 mps 758 mmHg 63%
10:00 +35°C° 0.3 mm 3 mps 758 mmHg 58%
11:00 +35°C° 0.5 mm 3 mps 758 mmHg 59%
12:00 +36°C° 0.5 mm 2 mps 757 mmHg 59%
13:00 +36°C° 0.5 mm 2 mps 756 mmHg 60%
14:00 +35°C° 0.1 mm 3 mps 756 mmHg 60%
15:00 +35°C° 0.1 mm 3 mps 755 mmHg 61%
16:00 +35°C° 0.1 mm 4 mps 754 mmHg 62%
17:00 +34°C° 0 mm 4 mps 755 mmHg 65%
18:00 +33°C° 0 mm 5 mps 756 mmHg 68%
19:00 +32°C° 0 mm 5 mps 756 mmHg 72%
20:00 +30°C° 0 mm 5 mps 757 mmHg 73%
21:00 +30°C° 0 mm 4 mps 757 mmHg 74%
22:00 +30°C° 0 mm 4 mps 757 mmHg 76%
23:00 +29°C° 0.3 mm 4 mps 757 mmHg 75%

Day after tomorrow, 10 August, Monday

Time Temperature Precipitation Wind Pressure Humidity
00:00 +29°C° 0.3 mm 3 mps 757 mmHg 75%
01:00 +29°C° 0.3 mm 3 mps 757 mmHg 75%
02:00 +28°C° 0.6 mm 3 mps 756 mmHg 76%
03:00 +28°C° 0.6 mm 3 mps 756 mmHg 77%
04:00 +28°C° 0.6 mm 3 mps 756 mmHg 78%
05:00 +28°C° 0.3 mm 3 mps 756 mmHg 77%
06:00 +28°C° 0.3 mm 3 mps 757 mmHg 77%
07:00 +29°C° 0.3 mm 3 mps 757 mmHg 76%
08:00 +31°C° 1.5 mm 3 mps 757 mmHg 71%
09:00 +34°C° 1.5 mm 2 mps 757 mmHg 67%
10:00 +35°C° 1.5 mm 2 mps 757 mmHg 62%
11:00 +35°C° 1.2 mm 2 mps 757 mmHg 64%
12:00 +35°C° 1.2 mm 2 mps 756 mmHg 67%
13:00 +33°C° 1.2 mm 1 mps 755 mmHg 69%
14:00 +35°C° 0.3 mm 2 mps 754 mmHg 67%
15:00 +35°C° 0.3 mm 2 mps 754 mmHg 65%
16:00 +35°C° 0.3 mm 3 mps 754 mmHg 63%
17:00 +33°C° 0.1 mm 4 mps 754 mmHg 68%
18:00 +32°C° 0.1 mm 4 mps 754 mmHg 73%
19:00 +29°C° 0.1 mm 5 mps 755 mmHg 78%
20:00 +29°C° 0.1 mm 5 mps 755 mmHg 80%
21:00 +29°C° 0.1 mm 4 mps 756 mmHg 83%
22:00 +28°C° 0.1 mm 4 mps 757 mmHg 86%
23:00 +28°C° 0 mm 3 mps 756 mmHg 85%

11 August, Tuesday

Time Temperature Precipitation Wind Pressure Humidity
00:00 +28°C° 0 mm 3 mps 756 mmHg 85%
01:00 +28°C° 0 mm 3 mps 755 mmHg 84%
02:00 +28°C° 1.2 mm 3 mps 755 mmHg 85%
03:00 +27°C° 1.2 mm 3 mps 755 mmHg 85%
04:00 +27°C° 1.2 mm 3 mps 755 mmHg 85%
05:00 +27°C° 0.7 mm 3 mps 755 mmHg 84%
06:00 +28°C° 0.7 mm 3 mps 756 mmHg 84%
07:00 +28°C° 0.7 mm 3 mps 756 mmHg 83%
08:00 +30°C° 0.4 mm 3 mps 756 mmHg 75%
09:00 +33°C° 0.4 mm 3 mps 756 mmHg 68%
10:00 +35°C° 0.4 mm 3 mps 756 mmHg 61%
11:00 +35°C° 0.6 mm 2 mps 755 mmHg 60%
12:00 +36°C° 0.6 mm 2 mps 755 mmHg 59%
13:00 +36°C° 0.6 mm 2 mps 754 mmHg 58%
14:00 +35°C° 0.3 mm 2 mps 754 mmHg 61%
15:00 +35°C° 0.3 mm 2 mps 753 mmHg 63%
16:00 +35°C° 0.3 mm 2 mps 753 mmHg 66%
17:00 +33°C° 0 mm 4 mps 753 mmHg 68%
18:00 +32°C° 0 mm 5 mps 754 mmHg 70%
19:00 +30°C° 0 mm 6 mps 754 mmHg 73%
20:00 +30°C° 0 mm 5 mps 755 mmHg 75%
21:00 +30°C° 0 mm 4 mps 756 mmHg 77%
22:00 +29°C° 0 mm 4 mps 756 mmHg 79%
23:00 +29°C° 0.2 mm 3 mps 756 mmHg 80%

12 August, Wednesday

Time Temperature Precipitation Wind Pressure Humidity
00:00 +29°C° 0.2 mm 3 mps 756 mmHg 81%
01:00 +28°C° 0.2 mm 3 mps 755 mmHg 82%
02:00 +28°C° 2.2 mm 3 mps 755 mmHg 85%
03:00 +27°C° 2.2 mm 3 mps 755 mmHg 88%
04:00 +27°C° 2.2 mm 4 mps 755 mmHg 91%
05:00 +27°C° 1 mm 4 mps 756 mmHg 90%
06:00 +28°C° 1 mm 4 mps 756 mmHg 89%
07:00 +28°C° 1 mm 3 mps 756 mmHg 89%
08:00 +29°C° 0.1 mm 3 mps 756 mmHg 82%
09:00 +31°C° 0.1 mm 3 mps 756 mmHg 76%
10:00 +32°C° 0.1 mm 2 mps 756 mmHg 70%
11:00 +34°C° 0.2 mm 2 mps 756 mmHg 68%
12:00 +35°C° 0.2 mm 2 mps 755 mmHg 65%
13:00 +34°C° 0.2 mm 1 mps 754 mmHg 63%
14:00 +35°C° 0.1 mm 2 mps 754 mmHg 64%
15:00 +35°C° 0.1 mm 3 mps 753 mmHg 66%
16:00 +34°C° 0.1 mm 3 mps 753 mmHg 67%
17:00 +33°C° 0.2 mm 4 mps 753 mmHg 69%
18:00 +32°C° 0.2 mm 5 mps 754 mmHg 71%
19:00 +30°C° 0.2 mm 6 mps 754 mmHg 72%
20:00 +30°C° 0 mm 5 mps 755 mmHg 75%
21:00 +29°C° 0 mm 5 mps 755 mmHg 78%
22:00 +29°C° 0 mm 4 mps 756 mmHg 81%
23:00 +29°C° 0.1 mm 4 mps 756 mmHg 82%

13 August, Thursday

Time Temperature Precipitation Wind Pressure Humidity
00:00 +28°C° 0.1 mm 3 mps 755 mmHg 82%
01:00 +28°C° 0.1 mm 3 mps 755 mmHg 83%
02:00 +28°C° 0.3 mm 3 mps 755 mmHg 83%
03:00 +28°C° 0.3 mm 2 mps 755 mmHg 84%
04:00 +27°C° 0.3 mm 2 mps 755 mmHg 85%
05:00 +28°C° 0.6 mm 2 mps 755 mmHg 84%
06:00 +28°C° 0.6 mm 2 mps 755 mmHg 83%
07:00 +29°C° 0.6 mm 3 mps 756 mmHg 82%
08:00 +30°C° 0.8 mm 3 mps 756 mmHg 76%
09:00 +33°C° 0.8 mm 3 mps 756 mmHg 71%
10:00 +34°C° 0.8 mm 4 mps 756 mmHg 65%
11:00 +35°C° 0.4 mm 4 mps 755 mmHg 64%
12:00 +35°C° 0.4 mm 3 mps 755 mmHg 62%
13:00 +36°C° 0.4 mm 3 mps 754 mmHg 60%
14:00 +35°C° 0.6 mm 3 mps 753 mmHg 64%
15:00 +34°C° 0.6 mm 2 mps 753 mmHg 68%
16:00 +34°C° 0.6 mm 2 mps 752 mmHg 72%
17:00 +32°C° 0.2 mm 2 mps 753 mmHg 75%
18:00 +31°C° 0.2 mm 3 mps 754 mmHg 78%
19:00 +30°C° 0.2 mm 4 mps 754 mmHg 81%
20:00 +29°C° 0.1 mm 3 mps 755 mmHg 83%
21:00 +29°C° 0.1 mm 3 mps 755 mmHg 85%
22:00 +29°C° 0.1 mm 3 mps 756 mmHg 86%
23:00 +28°C° 0.5 mm 3 mps 756 mmHg 85%
Show more